Location: Tr�vern
(48.0333°N, 4.6000°W)
Time: 01:25:34
(UTC+00:00)

Cosmos 192 - Visible Passes

Search period start: 24 October 2020 00:00
Search period end: 03 November 2020 00:00
Orbit: 700 x 714 km, 74.0° (Epoch: 23 October)

Date Brightness Start Highest point End Pass type
(mag) Time Alt. Az. Time Alt. Az. Time Alt. Az.
24 Oct 6.5 05:45:27 10° N 05:49:31 25° NE 05:53:34 10° ESE visible
25 Oct 7.1 04:51:23 10° NNE 04:53:36 13° NE 04:55:49 10° ENE visible
26 Oct 6.2 05:35:29 10° N 05:39:53 30° NE 05:44:15 10° ESE visible
27 Oct 7.1 04:41:06 10° N 04:44:03 16° NE 04:47:01 10° E visible
27 Oct 4.5 06:20:37 10° NNW 06:25:38 85° ENE 06:30:35 10° SSE visible
28 Oct 5.8 05:25:34 10° N 05:30:12 37° ENE 05:34:49 10° SE visible
29 Oct 6.9 04:30:58 10° N 04:34:30 19° NE 04:37:59 10° E visible
29 Oct 4.3 06:10:52 10° NNW 06:15:50 76° WSW 06:20:46 10° SSE visible
30 Oct 5.3 05:15:42 10° NNW 05:20:31 47° ENE 05:25:18 10° SE visible
31 Oct 6.6 04:20:56 10° N 04:24:53 23° NE 04:28:48 10° ESE visible
31 Oct 4.4 06:01:09 10° NNW 06:06:02 58° WSW 06:10:53 10° S visible
01 Nov 7.3 03:27:04 10° NNE 03:28:56 12° NE 03:30:48 10° ENE visible
01 Nov 4.8 05:05:51 10° NNW 05:10:47 61° ENE 05:15:41 10° SE visible
01 Nov 6.0 19:35:02 10° SSW 19:36:43 22° S 19:36:43 22° S visible
02 Nov 6.2 04:11:10 11° N 04:15:15 28° NE 04:19:30 10° ESE visible
02 Nov 4.7 05:51:28 10° NW 05:56:11 45° WSW 06:00:52 10° S visible
02 Nov 5.3 18:40:40 10° SSE 18:43:52 27° SE 18:43:52 27° SE visible
02 Nov 6.4 20:20:53 10° SW 20:22:56 23° WSW 20:22:56 23° WSW visible
